SWA356 KMSY-KAUS

Flight info

Callsign SWA356
Flight time 1h 15m
Altitude 32000
Route LFT LCH WEEED WLEEE7
Aircraft B738/M-SDE2E3FGHIRWXY/LB1

Departure

Time 2026-04-28 10:07
Airport Louis Armstrong New Orleans International Airport (KMSY)

Arrival

Time 2026-04-28 11:23
Airport Austin Bergstrom International Airport (KAUS)
Time Latitude Longitude Altitude Speed Heading
2026-04-28 09:49 29.98623 -90.25603 16 ft 0 kts 310°
2026-04-28 09:58 29.98617 -90.25594 15 ft 4 kts 307°
2026-04-28 09:58 29.98602 -90.25577 16 ft 4 kts 316°
2026-04-28 09:58 29.98583 -90.25557 14 ft 4 kts 336°
2026-04-28 09:58 29.98572 -90.25555 16 ft 1 kts 36°
2026-04-28 09:59 29.98569 -90.25557 15 ft 1 kts 36°
2026-04-28 10:01 29.98570 -90.25556 14 ft 2 kts 36°
2026-04-28 10:01 29.98623 -90.25512 15 ft 16 kts 36°
2026-04-28 10:01 29.98734 -90.25419 14 ft 23 kts 36°
2026-04-28 10:02 29.98854 -90.25372 13 ft 20 kts 318°
2026-04-28 10:02 29.98901 -90.25531 14 ft 23 kts 285°
2026-04-28 10:02 29.98948 -90.25726 18 ft 27 kts 285°
2026-04-28 10:02 29.99004 -90.25960 15 ft 33 kts 285°
2026-04-28 10:03 29.99070 -90.26234 11 ft 38 kts 285°
2026-04-28 10:03 29.99144 -90.26539 11 ft 41 kts 285°
2026-04-28 10:03 29.99221 -90.26860 14 ft 42 kts 285°
2026-04-28 10:03 29.99300 -90.27186 10 ft 43 kts 285°
2026-04-28 10:04 29.99382 -90.27526 6 ft 45 kts 285°
2026-04-28 10:04 29.99466 -90.27874 7 ft 45 kts 285°
2026-04-28 10:04 29.99527 -90.28130 9 ft 18 kts 287°
2026-04-28 10:04 29.99560 -90.28177 9 ft 2 kts 336°
2026-04-28 10:05 29.99571 -90.28181 9 ft 0 kts 350°
2026-04-28 10:05 29.99575 -90.28182 9 ft 4 kts 352°
2026-04-28 10:06 29.99645 -90.28163 9 ft 11 kts 45°
2026-04-28 10:06 29.99648 -90.28099 8 ft 0 kts 105°
2026-04-28 10:06 29.99647 -90.28095 8 ft 0 kts 105°
2026-04-28 10:06 29.99599 -90.27895 7 ft 58 kts 105°
2026-04-28 10:07 29.99435 -90.27217 10 ft 114 kts 105°
2026-04-28 10:07 29.99181 -90.26166 9 ft 156 kts 105°
2026-04-28 10:07 29.98865 -90.24846 283 ft 170 kts 106°
2026-04-28 10:07 29.98570 -90.23582 991 ft 163 kts 109°
2026-04-28 10:08 29.98306 -90.22294 1521 ft 167 kts 105°
2026-04-28 10:08 29.98116 -90.20921 1877 ft 184 kts 105°
2026-04-28 10:08 29.97820 -90.19403 2076 ft 202 kts 121°
2026-04-28 10:08 29.96790 -90.18335 2207 ft 208 kts 165°
2026-04-28 10:09 29.95338 -90.18450 2389 ft 220 kts 205°
2026-04-28 10:09 29.94156 -90.19610 2740 ft 229 kts 230°
2026-04-28 10:09 29.93529 -90.21314 3145 ft 237 kts 258°
2026-04-28 10:09 29.93638 -90.23205 3562 ft 242 kts 277°
2026-04-28 10:10 29.93989 -90.25144 3958 ft 245 kts 278°
2026-04-28 10:10 29.94325 -90.27048 4363 ft 246 kts 278°
2026-04-28 10:10 29.94648 -90.28991 4770 ft 248 kts 278°
2026-04-28 10:10 29.94964 -90.30953 5159 ft 249 kts 278°
2026-04-28 10:11 29.95274 -90.32917 5581 ft 249 kts 278°
2026-04-28 10:11 29.95582 -90.34888 5989 ft 250 kts 278°
2026-04-28 10:11 29.95887 -90.36862 6422 ft 250 kts 279°
2026-04-28 10:11 29.96191 -90.38840 6818 ft 251 kts 278°
2026-04-28 10:12 29.96493 -90.40819 7237 ft 251 kts 278°
2026-04-28 10:12 29.96795 -90.42805 7624 ft 253 kts 278°
2026-04-28 10:12 29.97098 -90.44804 8029 ft 254 kts 278°
2026-04-28 10:12 29.97402 -90.46814 8426 ft 255 kts 278°
2026-04-28 10:13 29.97707 -90.48836 8833 ft 257 kts 278°
2026-04-28 10:13 29.98013 -90.50869 9261 ft 258 kts 278°
2026-04-28 10:13 29.98320 -90.52912 9680 ft 259 kts 278°
2026-04-28 10:13 29.98627 -90.54966 10083 ft 261 kts 278°
2026-04-28 10:14 29.98938 -90.57041 10472 ft 263 kts 278°
2026-04-28 10:14 29.99253 -90.59156 10687 ft 276 kts 278°
2026-04-28 10:14 29.99589 -90.61416 10800 ft 296 kts 278°
2026-04-28 10:14 29.99949 -90.63837 10947 ft 316 kts 278°
2026-04-28 10:15 30.00333 -90.66413 11085 ft 335 kts 278°
2026-04-28 10:15 30.00737 -90.69131 11213 ft 352 kts 279°
2026-04-28 10:15 30.01160 -90.71973 11396 ft 366 kts 279°
2026-04-28 10:15 30.01596 -90.74906 11694 ft 375 kts 279°
2026-04-28 10:16 30.02038 -90.77886 12130 ft 378 kts 279°
2026-04-28 10:16 30.02482 -90.80888 12632 ft 381 kts 279°
2026-04-28 10:16 30.02927 -90.83902 13178 ft 382 kts 279°
2026-04-28 10:16 30.03371 -90.86927 13735 ft 383 kts 279°
2026-04-28 10:17 30.03818 -90.89970 14241 ft 385 kts 279°
2026-04-28 10:17 30.04265 -90.93021 14734 ft 387 kts 279°
2026-04-28 10:17 30.04715 -90.96092 15223 ft 389 kts 279°
2026-04-28 10:17 30.05166 -90.99177 15736 ft 391 kts 279°
2026-04-28 10:18 30.05619 -91.02280 16249 ft 393 kts 279°
2026-04-28 10:18 30.06074 -91.05397 16751 ft 395 kts 279°
2026-04-28 10:18 30.06530 -91.08532 17250 ft 397 kts 279°
2026-04-28 10:18 30.06982 -91.11642 17741 ft 399 kts 279°
2026-04-28 10:19 30.07442 -91.14812 18250 ft 401 kts 279°
2026-04-28 10:19 30.07904 -91.17999 18679 ft 403 kts 279°
2026-04-28 10:19 30.08367 -91.21198 19099 ft 405 kts 279°
2026-04-28 10:19 30.08831 -91.24416 19525 ft 407 kts 279°
2026-04-28 10:20 30.09296 -91.27649 19950 ft 409 kts 279°
2026-04-28 10:20 30.09762 -91.30894 20363 ft 411 kts 279°
2026-04-28 10:20 30.10231 -91.34161 20765 ft 413 kts 279°
2026-04-28 10:20 30.10700 -91.37437 21181 ft 415 kts 279°
2026-04-28 10:21 30.11170 -91.40722 21591 ft 416 kts 279°
2026-04-28 10:21 30.11641 -91.44025 21977 ft 418 kts 279°
2026-04-28 10:21 30.12115 -91.47348 22348 ft 420 kts 279°
2026-04-28 10:21 30.12589 -91.50684 22715 ft 422 kts 279°
2026-04-28 10:22 30.13064 -91.54035 23068 ft 424 kts 279°
2026-04-28 10:22 30.13542 -91.57410 23394 ft 426 kts 279°
2026-04-28 10:22 30.14022 -91.60799 23708 ft 429 kts 279°
2026-04-28 10:22 30.14502 -91.64201 24003 ft 430 kts 279°
2026-04-28 10:23 30.14982 -91.67610 24318 ft 430 kts 279°
2026-04-28 10:23 30.15462 -91.71025 24630 ft 431 kts 279°
2026-04-28 10:23 30.15942 -91.74448 24917 ft 432 kts 279°
2026-04-28 10:23 30.16423 -91.77883 25194 ft 433 kts 279°
2026-04-28 10:24 30.16903 -91.81321 25472 ft 434 kts 279°
2026-04-28 10:24 30.17385 -91.84774 25746 ft 436 kts 279°
2026-04-28 10:24 30.17866 -91.88232 26019 ft 437 kts 279°
2026-04-28 10:24 30.18349 -91.91706 26279 ft 438 kts 279°
2026-04-28 10:25 30.18832 -91.95187 26527 ft 439 kts 279°
2026-04-28 10:25 30.19290 -91.98673 26811 ft 439 kts 277°
2026-04-28 10:25 30.19409 -92.02193 27143 ft 440 kts 265°
2026-04-28 10:25 30.18929 -92.05677 27596 ft 437 kts 261°
2026-04-28 10:26 30.18555 -92.07954 27906 ft 435 kts 262°
2026-04-28 10:26 30.18188 -92.11406 28285 ft 432 kts 268°
2026-04-28 10:26 30.18130 -92.14868 28633 ft 430 kts 271°
2026-04-28 10:26 30.18179 -92.18321 29019 ft 429 kts 272°
2026-04-28 10:27 30.18212 -92.21756 29449 ft 427 kts 271°
2026-04-28 10:27 30.18187 -92.25173 29891 ft 424 kts 270°
2026-04-28 10:27 30.18105 -92.28579 30282 ft 423 kts 269°
2026-04-28 10:27 30.17982 -92.31958 30760 ft 417 kts 269°
2026-04-28 10:28 30.17839 -92.35276 31308 ft 411 kts 269°
2026-04-28 10:28 30.17635 -92.39626 31795 ft 409 kts 269°
2026-04-28 10:28 30.17530 -92.41842 31990 ft 409 kts 269°
2026-04-28 10:29 30.17220 -92.48452 32043 ft 414 kts 269°
2026-04-28 10:29 30.16910 -92.55068 32042 ft 410 kts 269°
2026-04-28 10:30 30.16602 -92.61631 32041 ft 408 kts 269°
2026-04-28 10:30 30.16292 -92.68171 32047 ft 407 kts 268°
2026-04-28 10:31 30.15981 -92.74684 32044 ft 406 kts 268°
2026-04-28 10:31 30.15667 -92.81149 32043 ft 405 kts 268°
2026-04-28 10:32 30.15348 -92.87647 32036 ft 405 kts 268°
2026-04-28 10:32 30.15027 -92.94151 32034 ft 405 kts 268°
2026-04-28 10:33 30.14702 -93.00653 32030 ft 406 kts 268°
2026-04-28 10:33 30.14374 -93.07169 32024 ft 406 kts 268°
2026-04-28 10:34 30.13961 -93.13685 32030 ft 407 kts 266°
2026-04-28 10:34 30.13269 -93.20194 32029 ft 408 kts 264°
2026-04-28 10:35 30.12518 -93.26698 32028 ft 409 kts 264°
2026-04-28 10:35 30.11789 -93.33211 32028 ft 409 kts 265°
2026-04-28 10:36 30.11078 -93.39731 32027 ft 409 kts 265°
2026-04-28 10:36 30.10371 -93.46248 32027 ft 409 kts 265°
2026-04-28 10:37 30.09661 -93.52765 32027 ft 409 kts 265°
2026-04-28 10:37 30.08949 -93.59276 32027 ft 409 kts 265°
2026-04-28 10:38 30.08233 -93.65793 32024 ft 409 kts 265°
2026-04-28 10:38 30.07513 -93.72302 32023 ft 408 kts 265°
2026-04-28 10:39 30.06792 -93.78800 32028 ft 408 kts 265°
2026-04-28 10:39 30.06067 -93.85298 32034 ft 408 kts 265°
2026-04-28 10:40 30.05340 -93.91787 32013 ft 407 kts 265°
2026-04-28 10:40 30.04616 -93.98224 31988 ft 407 kts 265°
2026-04-28 10:41 30.03885 -94.04695 31993 ft 407 kts 265°
2026-04-28 10:41 30.03150 -94.11174 31999 ft 407 kts 265°
2026-04-28 10:42 30.02411 -94.17654 31999 ft 407 kts 265°
2026-04-28 10:42 30.01670 -94.24129 32005 ft 407 kts 265°
2026-04-28 10:43 30.00924 -94.30608 32000 ft 407 kts 265°
2026-04-28 10:43 30.00176 -94.37084 31998 ft 407 kts 265°
2026-04-28 10:44 29.99425 -94.43553 31992 ft 407 kts 265°
2026-04-28 10:44 29.98672 -94.50016 31988 ft 406 kts 265°
2026-04-28 10:45 29.97916 -94.56472 31986 ft 406 kts 265°
2026-04-28 10:45 29.97158 -94.62922 31985 ft 406 kts 265°
2026-04-28 10:46 29.96397 -94.69365 31977 ft 405 kts 265°
2026-04-28 10:46 29.95633 -94.75805 31978 ft 405 kts 265°
2026-04-28 10:47 29.94867 -94.82236 31976 ft 405 kts 265°
2026-04-28 10:47 29.94099 -94.88660 31972 ft 404 kts 265°
2026-04-28 10:48 29.93327 -94.95087 31973 ft 404 kts 264°
2026-04-28 10:48 29.92553 -95.01507 31969 ft 404 kts 264°
2026-04-28 10:49 29.91776 -95.07921 31960 ft 404 kts 264°
2026-04-28 10:49 29.90997 -95.14329 31958 ft 404 kts 264°
2026-04-28 10:50 29.90216 -95.20729 31957 ft 403 kts 264°
2026-04-28 10:50 29.89431 -95.27132 31953 ft 403 kts 264°
2026-04-28 10:51 29.88643 -95.33528 31955 ft 403 kts 264°
2026-04-28 10:51 29.87853 -95.39923 31953 ft 403 kts 264°
2026-04-28 10:52 29.87060 -95.46315 31962 ft 403 kts 264°
2026-04-28 10:52 29.86264 -95.52699 31955 ft 403 kts 264°
2026-04-28 10:53 29.85470 -95.59045 31954 ft 403 kts 264°
2026-04-28 10:53 29.84668 -95.65429 31943 ft 403 kts 264°
2026-04-28 10:54 29.83863 -95.71811 31962 ft 403 kts 264°
2026-04-28 10:54 29.83056 -95.78194 31970 ft 403 kts 264°
2026-04-28 10:55 29.82242 -95.84603 31368 ft 407 kts 264°
2026-04-28 10:55 29.81832 -95.87826 30692 ft 406 kts 264°
2026-04-28 10:55 29.81422 -95.91031 30149 ft 403 kts 263°
2026-04-28 10:55 29.81016 -95.94198 29580 ft 398 kts 263°
2026-04-28 10:56 29.80613 -95.97339 29011 ft 394 kts 263°
2026-04-28 10:56 29.80214 -96.00437 28489 ft 389 kts 263°
2026-04-28 10:56 29.79820 -96.03500 27952 ft 385 kts 263°
2026-04-28 10:56 29.79429 -96.06532 27435 ft 381 kts 263°
2026-04-28 10:57 29.79043 -96.09529 26923 ft 377 kts 263°
2026-04-28 10:57 29.78658 -96.12505 26407 ft 374 kts 263°
2026-04-28 10:57 29.78275 -96.15460 25911 ft 372 kts 262°
2026-04-28 10:57 29.77924 -96.18395 25401 ft 369 kts 265°
2026-04-28 10:58 29.77821 -96.21367 24537 ft 377 kts 271°
2026-04-28 10:58 29.78075 -96.24403 23731 ft 385 kts 278°
2026-04-28 10:58 29.78500 -96.27440 23156 ft 383 kts 277°
2026-04-28 10:58 29.78857 -96.30472 22604 ft 380 kts 276°
2026-04-28 10:59 29.79123 -96.33488 22035 ft 377 kts 274°
2026-04-28 10:59 29.79341 -96.36518 21333 ft 379 kts 274°
2026-04-28 10:59 29.79547 -96.39535 20762 ft 378 kts 274°
2026-04-28 10:59 29.79756 -96.42536 20284 ft 374 kts 274°
2026-04-28 11:00 29.79969 -96.45506 19806 ft 371 kts 274°
2026-04-28 11:00 29.80183 -96.48419 19342 ft 368 kts 274°
2026-04-28 11:00 29.80398 -96.51349 18871 ft 366 kts 274°
2026-04-28 11:00 29.80617 -96.54257 18395 ft 365 kts 276°
2026-04-28 11:01 29.81182 -96.57094 17798 ft 367 kts 294°
2026-04-28 11:01 29.82634 -96.59519 17196 ft 370 kts 308°
2026-04-28 11:01 29.84403 -96.61680 16677 ft 371 kts 312°
2026-04-28 11:01 29.86231 -96.63765 16213 ft 368 kts 313°
2026-04-28 11:02 29.88032 -96.65849 15748 ft 366 kts 311°
2026-04-28 11:02 29.89772 -96.67971 15308 ft 363 kts 310°
2026-04-28 11:02 29.91456 -96.70125 14897 ft 360 kts 309°
2026-04-28 11:02 29.93128 -96.72272 14469 ft 359 kts 309°
2026-04-28 11:03 29.94805 -96.74402 14035 ft 359 kts 309°
2026-04-28 11:03 29.96490 -96.76517 13585 ft 358 kts 310°
2026-04-28 11:03 29.98182 -96.78625 13118 ft 357 kts 310°
2026-04-28 11:03 29.99867 -96.80718 12676 ft 355 kts 310°
2026-04-28 11:04 30.01543 -96.82798 12268 ft 353 kts 310°
2026-04-28 11:04 30.03186 -96.84836 12176 ft 341 kts 310°
2026-04-28 11:04 30.04730 -96.86861 11993 ft 331 kts 302°
2026-04-28 11:04 30.05617 -96.89251 11795 ft 321 kts 284°
2026-04-28 11:05 30.06217 -96.91739 11458 ft 323 kts 284°
2026-04-28 11:05 30.06908 -96.94203 11220 ft 322 kts 288°
2026-04-28 11:05 30.07702 -96.96605 10944 ft 318 kts 289°
2026-04-28 11:05 30.08493 -96.98979 10684 ft 314 kts 289°
2026-04-28 11:06 30.09241 -97.01329 10413 ft 310 kts 288°
2026-04-28 11:06 30.09958 -97.03668 10151 ft 307 kts 287°
2026-04-28 11:06 30.10653 -97.05980 9970 ft 300 kts 287°
2026-04-28 11:06 30.11320 -97.08204 9971 ft 286 kts 287°
2026-04-28 11:07 30.11962 -97.10350 9405 ft 288 kts 287°
2026-04-28 11:07 30.12605 -97.12500 9201 ft 273 kts 286°
2026-04-28 11:07 30.13208 -97.14510 9100 ft 257 kts 286°
2026-04-28 11:07 30.13773 -97.16394 9004 ft 241 kts 285°
2026-04-28 11:08 30.14302 -97.18162 8885 ft 226 kts 285°
2026-04-28 11:08 30.14799 -97.19822 8777 ft 212 kts 284°
2026-04-28 11:08 30.15264 -97.21382 8639 ft 200 kts 284°
2026-04-28 11:08 30.15713 -97.22890 8337 ft 198 kts 283°
2026-04-28 11:09 30.16160 -97.24393 8008 ft 197 kts 283°
2026-04-28 11:09 30.16605 -97.25887 7695 ft 196 kts 282°
2026-04-28 11:09 30.17048 -97.27373 7381 ft 196 kts 282°
2026-04-28 11:09 30.17494 -97.28842 7050 ft 197 kts 284°
2026-04-28 11:10 30.18023 -97.30297 6839 ft 193 kts 285°
2026-04-28 11:10 30.18559 -97.31715 6637 ft 193 kts 284°
2026-04-28 11:10 30.19098 -97.33152 6441 ft 196 kts 284°
2026-04-28 11:10 30.19640 -97.34608 6266 ft 196 kts 284°
2026-04-28 11:11 30.20170 -97.36026 6176 ft 190 kts 283°
2026-04-28 11:11 30.20689 -97.37423 6048 ft 188 kts 283°
2026-04-28 11:11 30.21201 -97.38805 5975 ft 188 kts 283°
2026-04-28 11:11 30.21745 -97.40208 5781 ft 194 kts 285°
2026-04-28 11:12 30.22313 -97.41618 5606 ft 191 kts 285°
2026-04-28 11:12 30.22874 -97.43002 5413 ft 189 kts 285°
2026-04-28 11:12 30.23425 -97.44361 5242 ft 184 kts 284°
2026-04-28 11:12 30.23964 -97.45699 5078 ft 184 kts 284°
2026-04-28 11:13 30.24507 -97.47053 4917 ft 188 kts 284°
2026-04-28 11:13 30.25064 -97.48446 4730 ft 192 kts 284°
2026-04-28 11:13 30.25628 -97.49849 4542 ft 192 kts 284°
2026-04-28 11:13 30.26188 -97.51243 4377 ft 190 kts 284°
2026-04-28 11:14 30.26565 -97.52180 4240 ft 189 kts 284°
2026-04-28 11:14 30.27117 -97.53552 4072 ft 187 kts 284°
2026-04-28 11:14 30.27861 -97.54822 3976 ft 200 kts 310°
2026-04-28 11:14 30.28942 -97.55828 4024 ft 201 kts 311°
2026-04-28 11:15 30.30029 -97.56877 3995 ft 207 kts 314°
2026-04-28 11:15 30.31393 -97.57479 3975 ft 221 kts 355°
2026-04-28 11:15 30.32915 -97.57457 4032 ft 220 kts 358°
2026-04-28 11:15 30.34459 -97.57461 3981 ft 221 kts 351°
2026-04-28 11:16 30.35990 -97.57617 3996 ft 221 kts 349°
2026-04-28 11:16 30.37498 -97.57913 3954 ft 215 kts 328°
2026-04-28 11:16 30.38550 -97.58940 3996 ft 188 kts 289°
2026-04-28 11:16 30.38887 -97.60345 4038 ft 182 kts 269°
2026-04-28 11:17 30.39030 -97.61824 4000 ft 186 kts 268°
2026-04-28 11:17 30.39161 -97.63294 3991 ft 182 kts 268°
2026-04-28 11:17 30.39305 -97.64730 3970 ft 177 kts 268°
2026-04-28 11:17 30.39455 -97.66135 3986 ft 176 kts 266°
2026-04-28 11:18 30.39349 -97.67507 3922 ft 169 kts 237°
2026-04-28 11:18 30.38495 -97.68288 3773 ft 159 kts 188°
2026-04-28 11:18 30.37355 -97.68299 3590 ft 169 kts 181°
2026-04-28 11:18 30.36176 -97.68298 3373 ft 168 kts 182°
2026-04-28 11:19 30.35018 -97.68290 3150 ft 164 kts 181°
2026-04-28 11:19 30.33907 -97.68267 2946 ft 159 kts 181°
2026-04-28 11:19 30.32816 -97.68239 2738 ft 155 kts 181°
2026-04-28 11:19 30.31756 -97.68213 2521 ft 147 kts 179°
2026-04-28 11:20 30.30785 -97.68186 2384 ft 134 kts 180°
2026-04-28 11:20 30.29863 -97.68161 2200 ft 133 kts 180°
2026-04-28 11:20 30.28934 -97.68137 2011 ft 133 kts 180°
2026-04-28 11:20 30.28016 -97.68112 1849 ft 132 kts 180°
2026-04-28 11:21 30.27104 -97.68088 1678 ft 130 kts 180°
2026-04-28 11:21 30.26203 -97.68065 1522 ft 132 kts 180°
2026-04-28 11:21 30.25244 -97.68040 1347 ft 139 kts 179°
2026-04-28 11:21 30.24267 -97.68013 1164 ft 141 kts 179°
2026-04-28 11:22 30.23270 -97.67987 943 ft 145 kts 178°
2026-04-28 11:22 30.22283 -97.67961 798 ft 145 kts 178°
2026-04-28 11:22 30.21299 -97.67935 617 ft 137 kts 178°
2026-04-28 11:22 30.20375 -97.67916 516 ft 116 kts 178°
2026-04-28 11:23 30.19718 -97.67896 504 ft 73 kts 177°
2026-04-28 11:23 30.19335 -97.67881 502 ft 47 kts 179°
2026-04-28 11:23 30.19072 -97.67896 494 ft 16 kts 166°
2026-04-28 11:23 30.18924 -97.67867 491 ft 27 kts 175°
2026-04-28 11:24 30.18693 -97.67868 486 ft 39 kts 176°
2026-04-28 11:24 30.18394 -97.67860 478 ft 47 kts 179°
2026-04-28 11:24 30.18101 -97.67846 475 ft 28 kts 168°
2026-04-28 11:24 30.18011 -97.67728 475 ft 20 kts 78°
2026-04-28 11:25 30.18018 -97.67546 474 ft 25 kts 89°
2026-04-28 11:25 30.18027 -97.67351 478 ft 23 kts 73°
2026-04-28 11:25 30.18182 -97.67289 480 ft 28 kts 358°
2026-04-28 11:25 30.18387 -97.67294 483 ft 32 kts 358°
2026-04-28 11:26 30.18631 -97.67301 493 ft 37 kts 359°
2026-04-28 11:26 30.18904 -97.67307 494 ft 42 kts 359°
2026-04-28 11:26 30.19206 -97.67314 502 ft 45 kts 359°
2026-04-28 11:26 30.19538 -97.67322 504 ft 50 kts 359°
2026-04-28 11:27 30.19866 -97.67331 505 ft 26 kts 357°
2026-04-28 11:27 30.19996 -97.67337 508 ft 1 kts 358°
2026-04-28 11:27 30.20035 -97.67338 509 ft 11 kts
2026-04-28 11:27 30.20089 -97.67260 511 ft 20 kts 90°
2026-04-28 11:28 30.20092 -97.67103 511 ft 7 kts 80°
2026-04-28 11:28 30.20129 -97.67082 512 ft 0 kts 31°
2026-04-28 11:28 30.20146 -97.67071 513 ft 4 kts 30°
2026-04-28 11:28 30.20169 -97.67055 513 ft 6 kts 31°
2026-04-28 11:29 30.20171 -97.67054 513 ft 0 kts 31°